Tracking 25963 objects as of 12-Aug-2022
HD Live streaming from Space Station
objects crossing your sky now

KSF2-C

Track KSF2-C now!
10-day predictions


NORAD ID: 52189
Int'l Code: 2022-033AJ
Perigee: 495.7 km
Apogee: 510.1 km
Inclination: 97.4 °
Period: 94.5 minutes
Semi major axis: 6873 km
RCS: Unknown
Launch date: April 1, 2022
Source: Luxembourg (LUXE)
Launch site: AIR FORCE EASTERN TEST RANGE (AFETR)
aabbcc
Your satellite tracking list
Your tracking list is empty




NASA's NSSDC Master Catalog

Two Line Element Set (TLE):
1 52189U 22033AJ  22224.54683836  .00011934  00000-0  50412-3 0  9993
2 52189  97.3777 304.9347 0010483 163.4595 320.8527 15.23350343 20217
Source of the keplerian elements: AFSPC